Valladolid(Mil/C, Spain

2:03 AM CET on February 20, 2017 (GMT +0100)
Valladolid Airport

Weather History for LEVD - November, 2012

Change the Weather History Date:

Friday, November 16, 2012

  Actual Average Record
Temperature  
Mean Temperature 54 °F -  
Max Temperature 60 °F - - ()
Min Temperature 48 °F - - ()
Degree Days  
Heating Degree Days 11    
Growing Degree Days 4 (Base 50)    
Moisture  
Dew Point 46 °F    
Average Humidity 78    
Maximum Humidity 100    
Minimum Humidity 59    
Precipitation  
Precipitation 0.00 in - - ()
Sea Level Pressure  
Sea Level Pressure 29.95 in    
Wind  
Wind Speed 8 mph ()    
Max Wind Speed 15 mph    
Max Gust Speed -    
Visibility 6.2 miles    
Events      
T = Trace of Precipitation, MM = Missing Value Source: Averaged Metar Reports

Daily Weather History Graph

Daily Weather History Graph

Search for Another Location

Airport or City:

Trip Planner

Search our weather history database for the weather conditions in past years. The results will help you decide how hot, cold, wet, or windy it might be!

Date:

Astronomy

Nov. 16, 2012 Rise Set
Actual Time 8:10 AM CET 5:57 PM CET
Civil Twilight 7:40 AM CET 6:27 PM CET
Nautical Twilight 7:06 AM CET 7:01 PM CET
Astronomical Twilight 6:33 AM CET 7:34 PM CET
Moon 10:52 AM CET (11/16) 8:40 PM CET (11/16)
Length of Visible Light 10h 47m
Length of Day
9h 47m
Waxing Crescent, 9% of the Moon is Illuminated
Nov 16
Waxing Crescent
Nov 20
First Quarter
Nov 28
Full
Dec 6
Last Quarter
Dec 13
New

Hourly Weather History & Observations

Time (CET) Temp. Dew Point Humidity Pressure Visibility Wind Dir Wind Speed Gust Speed Precip Events Conditions
6:00 AM 48.2 °F 48.2 °F 100% 30.01 in 6.2 mi NE 3.5 mph - N/A   Partly Cloudy
6:30 AM 48.2 °F 48.2 °F 100% 30.04 in 6.2 mi ENE 4.6 mph - N/A   Partly Cloudy
7:00 AM 48.2 °F 48.2 °F 100% 30.01 in 6.2 mi ENE 3.5 mph - N/A   Partly Cloudy
7:30 AM 48.2 °F 48.2 °F 100% 30.01 in 6.2 mi East 6.9 mph - N/A   Partly Cloudy
8:00 AM 48.2 °F 48.2 °F 100% 30.01 in 6.2 mi East 5.8 mph - N/A   Partly Cloudy
8:30 AM 48.2 °F 48.2 °F 100% 30.01 in 6.2 mi East 5.8 mph - N/A   Partly Cloudy
9:00 AM 48.2 °F 48.2 °F 100% 30.01 in - East 5.8 mph - N/A   Clear
9:30 AM 50.0 °F 50.0 °F 100% 30.01 in - East 4.6 mph - N/A   Clear
10:00 AM 51.8 °F 50.0 °F 94% 30.01 in - East 8.1 mph - N/A   Clear
10:30 AM 51.8 °F 50.0 °F 94% 30.01 in - East 6.9 mph - N/A   Clear
11:00 AM 53.6 °F 50.0 °F 88% 30.01 in 6.2 mi ESE 5.8 mph - N/A   Partly Cloudy
11:30 AM 57.2 °F 48.2 °F 72% 30.01 in 6.2 mi SSE 11.5 mph - N/A   Partly Cloudy
12:00 PM 57.2 °F 48.2 °F 72% 30.01 in 6.2 mi SSE 11.5 mph - N/A   Partly Cloudy
12:30 PM 59.0 °F 48.2 °F 67% 29.98 in 6.2 mi SSE 10.4 mph - N/A   Partly Cloudy
1:00 PM 60.8 °F 46.4 °F 59% 29.98 in 6.2 mi South 15.0 mph - N/A   Partly Cloudy
1:30 PM 60.8 °F 46.4 °F 59% 29.98 in 6.2 mi South 13.8 mph - N/A   Partly Cloudy
2:00 PM 60.8 °F 46.4 °F 59% 29.95 in 6.2 mi South 15.0 mph - N/A   Partly Cloudy
2:30 PM 59.0 °F 44.6 °F 59% 29.95 in 6.2 mi South 15.0 mph - N/A   Scattered Clouds
3:00 PM 60.8 °F 46.4 °F 59% 29.95 in 6.2 mi South 12.7 mph - N/A   Scattered Clouds
3:30 PM 59.0 °F 44.6 °F 59% 29.92 in 6.2 mi South 15.0 mph - N/A   Scattered Clouds
4:00 PM 59.0 °F 44.6 °F 59% 29.92 in 6.2 mi South 13.8 mph - N/A   Scattered Clouds
4:30 PM 59.0 °F 46.4 °F 63% 29.92 in 6.2 mi South 11.5 mph - N/A   Scattered Clouds
5:00 PM 57.2 °F 44.6 °F 63% 29.92 in 6.2 mi South 11.5 mph - N/A   Scattered Clouds
5:30 PM 57.2 °F 44.6 °F 63% 29.92 in 6.2 mi South 9.2 mph - N/A   Scattered Clouds
6:00 PM 53.6 °F 44.6 °F 72% 29.92 in 6.2 mi South 6.9 mph - N/A   Scattered Clouds
6:30 PM 53.6 °F 44.6 °F 72% 29.89 in 6.2 mi SSE 11.5 mph - N/A   Scattered Clouds
7:00 PM 51.8 °F 42.8 °F 71% 29.89 in 6.2 mi SSE 9.2 mph - N/A   Scattered Clouds
7:30 PM 51.8 °F 42.8 °F 71% 29.89 in 6.2 mi SSE 10.4 mph - N/A   Scattered Clouds
8:00 PM 53.6 °F 44.6 °F 72% 29.89 in 6.2 mi SSE 12.7 mph - N/A   Partly Cloudy
8:30 PM 51.8 °F 44.6 °F 76% 29.89 in 6.2 mi South 11.5 mph - N/A   Partly Cloudy
9:00 PM 51.8 °F 44.6 °F 76% 29.89 in 6.2 mi SSE 11.5 mph - N/A   Partly Cloudy
9:30 PM 51.8 °F 44.6 °F 76% 29.89 in 6.2 mi SSE 10.4 mph - N/A   Partly Cloudy
10:00 PM 51.8 °F 44.6 °F 76% 29.89 in 6.2 mi SSE 9.2 mph - N/A   Partly Cloudy
10:30 PM 51.8 °F 44.6 °F 76% 29.86 in 6.2 mi SE 8.1 mph - N/A   Partly Cloudy
11:00 PM 50.0 °F 44.6 °F 82% 29.86 in 6.2 mi SE 6.9 mph - N/A   Partly Cloudy
11:30 PM 50.0 °F 44.6 °F 82% 29.86 in 6.2 mi ESE 10.4 mph - N/A   Partly Cloudy